Location: Chatou
(48.8898°N, 2.1586°E)
Time: 08:01:44
(UTC+00:00)

VELOX 1 - Pass Details

Date: 11 December 2023
Orbit: 608 x 622 km, 98.4° (Epoch: 24 February)

Event Time Altitude Azimuth Distance (km) Brightness Sun altitude
Rises 06:52:39 0° 185° (S) 2,855 ? -6.7°
Reaches altitude 10° 06:54:57 10° 194° (SSW) 1,957 ? -6.4°
Maximum altitude 06:58:53 37° 262° (W) 962 ? -5.8°
Drops below altitude 10° 07:02:52 10° 330° (NNW) 1,976 ? -5.2°
Sets 07:05:12 0° 339° (NNW) 2,888 ? -4.9°
